TimeEST,TemperatureF,Dew PointF,Humidity,Sea Level PressureIn,VisibilityMPH,Wind Direction,Wind SpeedMPH,Gust SpeedMPH,PrecipitationIn,Events,Conditions,WindDirDegrees,DateUTC
12:53 AM,34.0,28.0,79,30.16,7.0,SW,4.6,-,N/A,,Clear,230,2012-11-09 05:53:00
1:53 AM,35.1,28.9,78,30.17,6.0,WSW,3.5,-,N/A,,Haze,240,2012-11-09 06:53:00
2:53 AM,30.0,26.1,85,30.17,5.0,SW,3.5,-,N/A,,Clear,230,2012-11-09 07:53:00
3:44 AM,35.6,30.2,81,30.15,5.0,SW,4.6,-,N/A,,Haze,220,2012-11-09 08:44:00
3:53 AM,35.1,30.0,82,30.17,5.0,SW,4.6,-,N/A,,Haze,220,2012-11-09 08:53:00
4:53 AM,37.0,32.0,82,30.17,5.0,SW,5.8,-,N/A,,Haze,230,2012-11-09 09:53:00
5:53 AM,37.9,32.0,79,30.18,5.0,SW,4.6,-,N/A,,Haze,220,2012-11-09 10:53:00
6:53 AM,39.2,32.0,75,30.16,5.0,SSW,4.6,-,N/A,,Haze,210,2012-11-09 11:53:00
7:39 AM,37.4,32.0,81,30.16,4.0,SW,4.6,-,N/A,,Haze,220,2012-11-09 12:39:00
7:53 AM,39.0,33.1,79,30.19,4.0,SSW,5.8,-,N/A,,Haze,210,2012-11-09 12:53:00
8:53 AM,41.0,34.0,76,30.19,4.0,SSW,6.9,-,N/A,,Haze,200,2012-11-09 13:53:00
9:53 AM,43.0,35.1,74,30.20,4.0,SSW,6.9,-,N/A,,Haze,200,2012-11-09 14:53:00
10:53 AM,46.0,37.0,71,30.19,5.0,SSW,5.8,-,N/A,,Haze,200,2012-11-09 15:53:00
11:53 AM,48.0,37.0,66,30.19,5.0,SSW,5.8,-,N/A,,Haze,210,2012-11-09 16:53:00
12:53 PM,51.1,37.9,61,30.14,6.0,South,9.2,-,N/A,,Haze,170,2012-11-09 17:53:00
1:53 PM,53.1,37.0,55,30.12,7.0,South,6.9,-,N/A,,Partly Cloudy,190,2012-11-09 18:53:00
2:53 PM,54.0,36.0,51,30.10,8.0,South,8.1,-,N/A,,Mostly Cloudy,180,2012-11-09 19:53:00
3:53 PM,53.1,37.9,57,30.10,7.0,South,5.8,-,N/A,,Scattered Clouds,170,2012-11-09 20:53:00
4:53 PM,52.0,37.9,59,30.10,7.0,South,5.8,-,N/A,,Overcast,170,2012-11-09 21:53:00
5:53 PM,52.0,37.0,57,30.11,8.0,South,4.6,-,N/A,,Overcast,170,2012-11-09 22:53:00
6:53 PM,50.0,37.9,63,30.10,8.0,SE,5.8,-,N/A,,Overcast,140,2012-11-09 23:53:00
7:53 PM,50.0,37.9,63,30.12,8.0,ESE,4.6,-,N/A,,Overcast,120,2012-11-10 00:53:00
8:53 PM,48.9,37.9,66,30.12,7.0,East,4.6,-,N/A,,Overcast,90,2012-11-10 01:53:00
9:53 PM,48.9,39.0,69,30.14,6.0,East,4.6,-,N/A,,Haze,80,2012-11-10 02:53:00
10:53 PM,48.0,39.0,71,30.13,6.0,SE,5.8,-,N/A,,Haze,130,2012-11-10 03:53:00
11:53 PM,48.0,39.0,71,30.12,6.0,ESE,3.5,-,N/A,,Haze,110,2012-11-10 04:53:00